Вернуться в каталог

STARLINK-35630

АктивенСвязьVLEO
NORAD 66131·PAYLOAD·🇺🇸 United States

Запущен Oct 22, 2025 с Vandenberg Space Force Base

Loading…

Ближайшие Пролёты (ближайшие 24 часа)

TLE

СвежийSource: CelesTrak SupGP

Эпоха: Sep 15, 2026, 03:21 UTC

1 66131C 25237T   26258.14006944 -.00039104  00000+0 -11554-2 0  2581
2 66131  53.1579 236.4311 0001309  87.0355 199.5446 15.34407575    10

Отслеживайте STARLINK-35630 в реальном времени с AllMySat

Download on the App Store